| time (UTC) | temp C | wind direction | speed KPH | gust KPH | rain 1hr cm | rain 24hr cm | rain mn cm | humidity % | barometer mb |
| 20260904112355 | 7 | 79 | 0.0 | 0.0 | 0.00 | 0.00 | 0.00 | 72 | 929.7 |
| 20260904111851 | 7 | 55 | 0.0 | 0.0 | 0.00 | 0.00 | 0.00 | 72 | 929.7 |
| 20260904111346 | 7 | 39 | 0.0 | 0.0 | 0.00 | 0.00 | 0.00 | 70 | 929.7 |
| 20260904110842 | 7 | 53 | 0.0 | 0.0 | 0.00 | 0.00 | 0.00 | 69 | 929.9 |
| 20260904110341 | 8 | 79 | 0.0 | 0.0 | 0.00 | 0.00 | 0.00 | 69 | 929.6 |
| 20260904105841 | 8 | 54 | 0.0 | 0.0 | 0.00 | 0.00 | 0.00 | 69 | 929.6 |
| 20260904105336 | 7 | 55 | 0.0 | 0.0 | 0.00 | 0.00 | 0.00 | 70 | 929.5 |
| 20260904104831 | 7 | 63 | 0.0 | 0.0 | 0.00 | 0.00 | 0.00 | 70 | 929.6 |
| 20260904104327 | 7 | 59 | 0.0 | 0.0 | 0.00 | 0.00 | 0.00 | 70 | 929.9 |
| 20260904103824 | 7 | 32 | 0.0 | 0.0 | 0.00 | 0.00 | 0.00 | 71 | 929.4 |
| 20260904103323 | 7 | 66 | 0.0 | 0.0 | 0.00 | 0.00 | 0.00 | 71 | 929.2 |
| 20260904102819 | 7 | 115 | 0.0 | 0.0 | 0.00 | 0.00 | 0.00 | 72 | 929.3 |
| 20260904102315 | 7 | 76 | 0.0 | 1.6 | 0.00 | 0.00 | 0.00 | 72 | 929.2 |
| 20260904101810 | 7 | 70 | 0.0 | 0.0 | 0.00 | 0.00 | 0.00 | 71 | 929.2 |
| 20260904101307 | 8 | 53 | 0.0 | 0.0 | 0.00 | 0.00 | 0.00 | 68 | 929.2 |
| 20260904100802 | 8 | 104 | 0.0 | 0.0 | 0.00 | 0.00 | 0.00 | 69 | 929.3 |
| 20260904100258 | 8 | 80 | 0.0 | 0.0 | 0.00 | 0.00 | 0.00 | 69 | 929.4 |
| 20260904095758 | 8 | 79 | 0.0 | 0.0 | 0.00 | 0.00 | 0.00 | 68 | 929.3 |
| 20260904095252 | 8 | 119 | 0.0 | 0.0 | 0.00 | 0.00 | 0.00 | 69 | 929.2 |
| 20260904094747 | 8 | 107 | 0.0 | 1.6 | 0.00 | 0.00 | 0.00 | 69 | 929.2 |
| 20260904094242 | 8 | 66 | 0.0 | 0.0 | 0.00 | 0.00 | 0.00 | 69 | 929.1 |
| 20260904093739 | 8 | 111 | 0.0 | 0.0 | 0.00 | 0.00 | 0.00 | 68 | 929.2 |
| 20260904093238 | 8 | 125 | 0.0 | 0.0 | 0.00 | 0.00 | 0.00 | 68 | 929.1 |
| 20260904092734 | 8 | 61 | 0.0 | 0.0 | 0.00 | 0.00 | 0.00 | 68 | 928.9 |
| 20260904092231 | 8 | 85 | 0.0 | 0.0 | 0.00 | 0.00 | 0.00 | 69 | 929.1 |
| 20260904091726 | 8 | 45 | 0.0 | 0.0 | 0.00 | 0.00 | 0.00 | 68 | 929.4 |
| 20260904091221 | 9 | 49 | 0.0 | 0.0 | 0.00 | 0.00 | 0.00 | 68 | 929.1 |
| 20260904090717 | 9 | 86 | 0.0 | 0.0 | 0.00 | 0.00 | 0.00 | 67 | 929.1 |
| 20260904090212 | 9 | 66 | 0.0 | 0.0 | 0.00 | 0.00 | 0.00 | 66 | 929.1 |
| 20260904085707 | 9 | 104 | 0.0 | 0.0 | 0.00 | 0.00 | 0.00 | 66 | 928.9 |
| 20260904085207 | 8 | 61 | 0.0 | 0.0 | 0.00 | 0.00 | 0.00 | 67 | 928.8 |
| 20260904084657 | 8 | 73 | 0.0 | 0.0 | 0.00 | 0.00 | 0.00 | 68 | 928.7 |
| 20260904084153 | 8 | 54 | 0.0 | 0.0 | 0.00 | 0.00 | 0.00 | 68 | 928.8 |
| 20260904083649 | 8 | 40 | 0.0 | 0.0 | 0.00 | 0.00 | 0.00 | 68 | 928.9 |
| 20260904083146 | 9 | 78 | 0.0 | 0.0 | 0.00 | 0.00 | 0.00 | 67 | 928.9 |
| 20260904082645 | 9 | 55 | 0.0 | 0.0 | 0.00 | 0.00 | 0.00 | 67 | 929.1 |
| 20260904082141 | 9 | 54 | 0.0 | 0.0 | 0.00 | 0.00 | 0.00 | 67 | 929.2 |
| 20260904081636 | 9 | 38 | 0.0 | 0.0 | 0.00 | 0.00 | 0.00 | 67 | 929.2 |
| 20260904081131 | 9 | 48 | 0.0 | 0.0 | 0.00 | 0.00 | 0.00 | 66 | 928.9 |
| 20260904080621 | 10 | 117 | 0.0 | 0.0 | 0.00 | 0.00 | 0.00 | 66 | 929.2 |
| 20260904080118 | 10 | 45 | 0.0 | 0.0 | 0.00 | 0.00 | 0.00 | 65 | 929.1 |
| 20260904075614 | 10 | 71 | 0.0 | 0.0 | 0.00 | 0.00 | 0.00 | 64 | 929.3 |
| 20260904075113 | 10 | 123 | 0.0 | 0.0 | 0.00 | 0.00 | 0.00 | 63 | 929.1 |
| 20260904074612 | 10 | 40 | 0.0 | 0.0 | 0.00 | 0.00 | 0.00 | 63 | 929.1 |
| 20260904074107 | 10 | 92 | 0.0 | 0.0 | 0.00 | 0.00 | 0.00 | 62 | 929.5 |
| 20260904073603 | 10 | 72 | 0.0 | 0.0 | 0.00 | 0.00 | 0.00 | 61 | 929.3 |
| 20260904073059 | 10 | 61 | 0.0 | 0.0 | 0.00 | 0.00 | 0.00 | 61 | 929.5 |
| 20260904072554 | 10 | 86 | 0.0 | 0.0 | 0.00 | 0.00 | 0.00 | 60 | 929.1 |
| 20260904072049 | 10 | 77 | 0.0 | 0.0 | 0.00 | 0.00 | 0.00 | 61 | 929.1 |
| 20260904071545 | 10 | 85 | 0.0 | 0.0 | 0.00 | 0.00 | 0.00 | 61 | 929.1 |
| 20260904071039 | 11 | 58 | 0.0 | 0.0 | 0.00 | 0.00 | 0.00 | 60 | 928.9 |
| 20260904070538 | 11 | 119 | 0.0 | 0.0 | 0.00 | 0.00 | 0.00 | 58 | 929.2 |
| 20260904070033 | 11 | 88 | 0.0 | 0.0 | 0.00 | 0.00 | 0.00 | 59 | 929.1 |
| 20260904065528 | 11 | 115 | 0.0 | 0.0 | 0.00 | 0.00 | 0.00 | 58 | 929.2 |
| 20260904065025 | 11 | 112 | 0.0 | 0.0 | 0.00 | 0.00 | 0.00 | 58 | 928.9 |
| 20260904064520 | 11 | 51 | 0.0 | 0.0 | 0.00 | 0.00 | 0.00 | 58 | 928.9 |
| 20260904064015 | 11 | 119 | 0.0 | 0.0 | 0.00 | 0.00 | 0.00 | 57 | 928.9 |
| 20260904063512 | 11 | 119 | 0.0 | 0.0 | 0.00 | 0.00 | 0.00 | 57 | 928.9 |
| 20260904063011 | 11 | 94 | 0.0 | 0.0 | 0.00 | 0.00 | 0.00 | 56 | 928.8 |
| 20260904062507 | 11 | 68 | 0.0 | 0.0 | 0.00 | 0.00 | 0.00 | 55 | 928.3 |
| 20260904062003 | 11 | 77 | 0.0 | 1.6 | 0.00 | 0.00 | 0.00 | 55 | 928.6 |
| 20260904061459 | 11 | 76 | 0.0 | 0.0 | 0.00 | 0.00 | 0.00 | 54 | 928.7 |
| 20260904060955 | 11 | 81 | 0.0 | 0.0 | 0.00 | 0.00 | 0.00 | 54 | 928.5 |
| 20260904060450 | 11 | 101 | 0.0 | 0.0 | 0.00 | 0.00 | 0.00 | 54 | 928.5 |
| 20260904055946 | 11 | 87 | 0.0 | 0.0 | 0.00 | 0.00 | 0.00 | 54 | 928.4 |
| 20260904055442 | 12 | 103 | 0.0 | 1.6 | 0.00 | 0.00 | 0.00 | 53 | 928.6 |
| 20260904054937 | 12 | 106 | 0.0 | 0.0 | 0.00 | 0.00 | 0.00 | 52 | 928.5 |
| 20260904054433 | 12 | 61 | 0.0 | 0.0 | 0.00 | 0.00 | 0.00 | 52 | 928.4 |
| 20260904053928 | 12 | 91 | 0.0 | 0.0 | 0.00 | 0.00 | 0.00 | 51 | 928.7 |
| 20260904053427 | 13 | 82 | 0.0 | 0.0 | 0.00 | 0.00 | 0.00 | 48 | 928.6 |
| 20260904052924 | 13 | 134 | 0.0 | 0.0 | 0.00 | 0.00 | 0.00 | 46 | 928.6 |
| 20260904052420 | 13 | 13 | 0.0 | 0.0 | 0.00 | 0.00 | 0.00 | 45 | 928.4 |
| 20260904051916 | 13 | 66 | 0.0 | 0.0 | 0.00 | 0.00 | 0.00 | 47 | 928.8 |
| 20260904051412 | 13 | 49 | 0.0 | 0.0 | 0.00 | 0.00 | 0.00 | 47 | 928.5 |
| 20260904050912 | 13 | 50 | 0.0 | 0.0 | 0.00 | 0.00 | 0.00 | 47 | 928.5 |
| 20260904050409 | 13 | 90 | 0.0 | 0.0 | 0.00 | 0.00 | 0.00 | 47 | 928.8 |
| 20260904045908 | 13 | 50 | 0.0 | 0.0 | 0.00 | 0.00 | 0.00 | 45 | 928.8 |
| 20260904045403 | 15 | 60 | 0.0 | 0.0 | 0.00 | 0.00 | 0.00 | 43 | 929.1 |
| 20260904044903 | 15 | 116 | 3.2 | 14.5 | 0.00 | 0.00 | 0.00 | 41 | 928.9 |
| 20260904044400 | 15 | 142 | 0.0 | 1.6 | 0.00 | 0.00 | 0.00 | 41 | 928.7 |
| 20260904043856 | 13 | 174 | 0.0 | 0.0 | 0.00 | 0.00 | 0.00 | 44 | 928.6 |
| 20260904043352 | 13 | 27 | 0.0 | 0.0 | 0.00 | 0.00 | 0.00 | 45 | 928.5 |
| 20260904042847 | 13 | 104 | 0.0 | 0.0 | 0.00 | 0.00 | 0.00 | 44 | 928.7 |
| 20260904042343 | 13 | 74 | 0.0 | 0.0 | 0.00 | 0.00 | 0.00 | 45 | 928.5 |
| 20260904041843 | 14 | 64 | 0.0 | 0.0 | 0.00 | 0.00 | 0.00 | 44 | 928.5 |
| 20260904041339 | 14 | 124 | 0.0 | 0.0 | 0.00 | 0.00 | 0.00 | 43 | 928.4 |
| 20260904040835 | 15 | 90 | 0.0 | 0.0 | 0.00 | 0.00 | 0.00 | 42 | 928.3 |
| 20260904040330 | 15 | 98 | 0.0 | 0.0 | 0.00 | 0.00 | 0.00 | 41 | 928.0 |
| 20260904035826 | 15 | 67 | 0.0 | 0.0 | 0.00 | 0.00 | 0.00 | 40 | 928.0 |
| 20260904035322 | 15 | 35 | 0.0 | 0.0 | 0.00 | 0.00 | 0.00 | 40 | 928.1 |
| 20260904034821 | 15 | 112 | 0.0 | 0.0 | 0.00 | 0.00 | 0.00 | 39 | 928.4 |
| 20260904034317 | 15 | 69 | 0.0 | 0.0 | 0.00 | 0.00 | 0.00 | 39 | 928.8 |
| 20260904033813 | 16 | 66 | 0.0 | 0.0 | 0.00 | 0.00 | 0.00 | 38 | 928.5 |
| 20260904033309 | 16 | 75 | 0.0 | 0.0 | 0.00 | 0.00 | 0.00 | 36 | 928.5 |
| 20260904032805 | 16 | 66 | 0.0 | 0.0 | 0.00 | 0.00 | 0.00 | 36 | 928.6 |
| 20260904032306 | 16 | 59 | 0.0 | 0.0 | 0.00 | 0.00 | 0.00 | 36 | 928.5 |
| 20260904031758 | 16 | 60 | 0.0 | 0.0 | 0.00 | 0.00 | 0.00 | 36 | 928.5 |
| 20260904031254 | 17 | 65 | 0.0 | 0.0 | 0.00 | 0.00 | 0.00 | 35 | 928.3 |
| 20260904030750 | 18 | 54 | 0.0 | 0.0 | 0.00 | 0.00 | 0.00 | 39 | 928.9 |
| 20260904030245 | 18 | 58 | 0.0 | 0.0 | 0.00 | 0.00 | 0.00 | 29 | 929.1 |
| 20260904025741 | 19 | 16 | 0.0 | 0.0 | 0.00 | 0.00 | 0.00 | 27 | 928.5 |
| 20260904025236 | 19 | 56 | 0.0 | 0.0 | 0.00 | 0.00 | 0.00 | 27 | 928.5 |
| 20260904024732 | 19 | 115 | 0.0 | 0.0 | 0.00 | 0.00 | 0.00 | 27 | 928.5 |
| 20260904024227 | 20 | 75 | 0.0 | 0.0 | 0.00 | 0.00 | 0.00 | 27 | 928.5 |
| 20260904023723 | 20 | 99 | 0.0 | 0.0 | 0.00 | 0.00 | 0.00 | 26 | 928.3 |
| 20260904023219 | 20 | 184 | 0.0 | 0.0 | 0.00 | 0.00 | 0.00 | 25 | 928.4 |
| 20260904022718 | 20 | 132 | 0.0 | 0.0 | 0.00 | 0.00 | 0.00 | 25 | 928.5 |
| 20260904022216 | 20 | 107 | 0.0 | 0.0 | 0.00 | 0.00 | 0.00 | 25 | 928.4 |
| 20260904021711 | 21 | 123 | 0.0 | 0.0 | 0.00 | 0.00 | 0.00 | 24 | 928.5 |
| 20260904021206 | 21 | 202 | 0.0 | 0.0 | 0.00 | 0.00 | 0.00 | 24 | 928.5 |
| 20260904020702 | 21 | 180 | 0.0 | 0.0 | 0.00 | 0.00 | 0.00 | 24 | 928.6 |
| 20260904020201 | 21 | 112 | 0.0 | 0.0 | 0.00 | 0.00 | 0.00 | 24 | 928.4 |
| 20260904015701 | 21 | 160 | 0.0 | 0.0 | 0.00 | 0.00 | 0.00 | 24 | 928.5 |
| 20260904015201 | 21 | 104 | 0.0 | 0.0 | 0.00 | 0.00 | 0.00 | 23 | 928.6 |
| 20260904014659 | 22 | 279 | 0.0 | 0.0 | 0.00 | 0.00 | 0.00 | 23 | 928.5 |
| 20260904014154 | 22 | 208 | 0.0 | 1.6 | 0.00 | 0.00 | 0.00 | 22 | 928.5 |
| 20260904013652 | 22 | 209 | 0.0 | 3.2 | 0.00 | 0.00 | 0.00 | 22 | 928.3 |
| 20260904013147 | 22 | 250 | 0.0 | 9.7 | 0.00 | 0.00 | 0.00 | 21 | 928.5 |
| 20260904012643 | 23 | 240 | 1.6 | 4.8 | 0.00 | 0.00 | 0.00 | 21 | 928.4 |
| 20260904012141 | 23 | 255 | 0.0 | 8.0 | 0.00 | 0.00 | 0.00 | 21 | 928.6 |
| 20260904011640 | 23 | 233 | 1.6 | 20.9 | 0.00 | 0.00 | 0.00 | 20 | 928.9 |
| 20260904011137 | 23 | 252 | 8.0 | 12.9 | 0.00 | 0.00 | 0.00 | 20 | 928.7 |
| 20260904010632 | 23 | 258 | 4.8 | 11.3 | 0.00 | 0.00 | 0.00 | 20 | 928.8 |
| 20260904010129 | 23 | 230 | 0.0 | 16.1 | 0.00 | 0.00 | 0.00 | 20 | 928.5 |
| 20260904005623 | 23 | 230 | 0.0 | 8.0 | 0.00 | 0.00 | 0.00 | 20 | 928.9 |
| 20260904005119 | 24 | 239 | 1.6 | 8.0 | 0.00 | 0.00 | 0.00 | 20 | 928.9 |
| 20260904004609 | 24 | 221 | 3.2 | 12.9 | 0.00 | 0.00 | 0.00 | 20 | 928.9 |
| 20260904004109 | 24 | 294 | 8.0 | 20.9 | 0.00 | 0.00 | 0.00 | 20 | 929.3 |
| 20260904003605 | 25 | 232 | 1.6 | 16.1 | 0.00 | 0.00 | 0.00 | 19 | 929.3 |
| 20260904003100 | 25 | 203 | 6.4 | 20.9 | 0.00 | 0.00 | 0.00 | 19 | 929.6 |
| 20260904002556 | 25 | 216 | 22.5 | 32.2 | 0.00 | 0.00 | 0.00 | 19 | 929.4 |
| 20260904002055 | 25 | 181 | 9.7 | 27.4 | 0.00 | 0.00 | 0.00 | 18 | 929.5 |
| 20260904001551 | 25 | 236 | 12.9 | 17.7 | 0.00 | 0.00 | 0.00 | 19 | 929.6 |
| 20260904001050 | 25 | 238 | 9.7 | 25.7 | 0.00 | 0.00 | 0.00 | 19 | 930.1 |
| 20260904000545 | 25 | 214 | 12.9 | 25.7 | 0.00 | 0.00 | 0.00 | 19 | 930.0 |
| 20260904000042 | 25 | 226 | 11.3 | 20.9 | 0.00 | 0.00 | 0.00 | 19 | 929.5 |
| 20260903235541 | 25 | 318 | 0.0 | 25.7 | 0.00 | 0.00 | 0.00 | 19 | 929.6 |
| 20260903235037 | 25 | 198 | 8.0 | 27.4 | 0.00 | 0.00 | 0.00 | 19 | 929.6 |
| 20260903234532 | 25 | 191 | 17.7 | 37.0 | 0.00 | 0.00 | 0.00 | 18 | 929.9 |
| 20260903234027 | 25 | 227 | 9.7 | 24.1 | 0.00 | 0.00 | 0.00 | 18 | 929.9 |
| 20260903233523 | 25 | 244 | 8.0 | 17.7 | 0.00 | 0.00 | 0.00 | 19 | 929.6 |
| 20260903233020 | 25 | 214 | 4.8 | 12.9 | 0.00 | 0.00 | 0.00 | 19 | 929.7 |
| 20260903232515 | 25 | 272 | 8.0 | 27.4 | 0.00 | 0.00 | 0.00 | 20 | 930.1 |
| 20260903232014 | 25 | 259 | 6.4 | 20.9 | 0.00 | 0.00 | 0.00 | 20 | 930.1 |
| 20260903231509 | 25 | 231 | 17.7 | 24.1 | 0.00 | 0.00 | 0.00 | 20 | 929.9 |
| 20260903231003 | 25 | 345 | 12.9 | 25.7 | 0.00 | 0.00 | 0.00 | 20 | 929.6 |
| 20260903230459 | 25 | 218 | 8.0 | 22.5 | 0.00 | 0.00 | 0.00 | 20 | 929.7 |
| 20260903225951 | 25 | 151 | 8.0 | 17.7 | 0.00 | 0.00 | 0.00 | 20 | 929.5 |
| 20260903225445 | 25 | 200 | 8.0 | 20.9 | 0.00 | 0.00 | 0.00 | 21 | 929.9 |
| 20260903224941 | 25 | 219 | 0.0 | 24.1 | 0.00 | 0.00 | 0.00 | 21 | 929.6 |
| 20260903224437 | 25 | 261 | 11.3 | 32.2 | 0.00 | 0.00 | 0.00 | 21 | 929.7 |
| 20260903223933 | 25 | 249 | 4.8 | 16.1 | 0.00 | 0.00 | 0.00 | 20 | 929.9 |
| 20260903223432 | 25 | 155 | 9.7 | 20.9 | 0.00 | 0.00 | 0.00 | 20 | 930.1 |
| 20260903222930 | 25 | 110 | 0.0 | 12.9 | 0.00 | 0.00 | 0.00 | 20 | 930.1 |
| 20260903222426 | 25 | 259 | 14.5 | 24.1 | 0.00 | 0.00 | 0.00 | 19 | 930.4 |
| 20260903221920 | 25 | 276 | 12.9 | 24.1 | 0.00 | 0.00 | 0.00 | 19 | 930.1 |
| 20260903221420 | 25 | 256 | 11.3 | 27.4 | 0.00 | 0.00 | 0.00 | 19 | 930.4 |
| 20260903220917 | 25 | 237 | 16.1 | 27.4 | 0.00 | 0.00 | 0.00 | 19 | 930.2 |
| 20260903220412 | 26 | 234 | 16.1 | 20.9 | 0.00 | 0.00 | 0.00 | 19 | 930.2 |
| 20260903215910 | 25 | 356 | 6.4 | 11.3 | 0.00 | 0.00 | 0.00 | 20 | 930.3 |
| 20260903215407 | 25 | 199 | 11.3 | 29.0 | 0.00 | 0.00 | 0.00 | 19 | 930.5 |
| 20260903214905 | 25 | 262 | 8.0 | 20.9 | 0.00 | 0.00 | 0.00 | 19 | 930.9 |
| 20260903214401 | 25 | 261 | 22.5 | 32.2 | 0.00 | 0.00 | 0.00 | 19 | 930.7 |
| 20260903213901 | 25 | 186 | 0.0 | 9.7 | 0.00 | 0.00 | 0.00 | 20 | 930.9 |
| 20260903213356 | 24 | 269 | 4.8 | 29.0 | 0.00 | 0.00 | 0.00 | 20 | 930.8 |
| 20260903212852 | 25 | 236 | 11.3 | 14.5 | 0.00 | 0.00 | 0.00 | 19 | 930.5 |
| 20260903212347 | 25 | 192 | 6.4 | 14.5 | 0.00 | 0.00 | 0.00 | 20 | 930.4 |
| 20260903211846 | 25 | 261 | 14.5 | 27.4 | 0.00 | 0.00 | 0.00 | 18 | 930.4 |
| 20260903211343 | 25 | 177 | 0.0 | 8.0 | 0.00 | 0.00 | 0.00 | 20 | 930.5 |
| 20260903210839 | 24 | 232 | 14.5 | 25.7 | 0.00 | 0.00 | 0.00 | 19 | 930.9 |
| 20260903210333 | 24 | 218 | 6.4 | 12.9 | 0.00 | 0.00 | 0.00 | 20 | 930.9 |
| 20260903205833 | 25 | 313 | 8.0 | 20.9 | 0.00 | 0.00 | 0.00 | 19 | 930.8 |
| 20260903205333 | 24 | 256 | 0.0 | 11.3 | 0.00 | 0.00 | 0.00 | 21 | 930.8 |
| 20260903204828 | 24 | 257 | 8.0 | 16.1 | 0.00 | 0.00 | 0.00 | 19 | 930.9 |
| 20260903204324 | 25 | 187 | 8.0 | 16.1 | 0.00 | 0.00 | 0.00 | 19 | 930.8 |
| 20260903203819 | 24 | 196 | 12.9 | 16.1 | 0.00 | 0.00 | 0.00 | 18 | 931.0 |
| 20260903203315 | 24 | 216 | 12.9 | 25.7 | 0.00 | 0.00 | 0.00 | 19 | 930.9 |
| 20260903202814 | 23 | 245 | 11.3 | 16.1 | 0.00 | 0.00 | 0.00 | 19 | 931.3 |
| 20260903202311 | 24 | 221 | 11.3 | 27.4 | 0.00 | 0.00 | 0.00 | 19 | 931.1 |
| 20260903201810 | 24 | 194 | 14.5 | 20.9 | 0.00 | 0.00 | 0.00 | 18 | 931.3 |
| 20260903201305 | 23 | 220 | 12.9 | 25.7 | 0.00 | 0.00 | 0.00 | 19 | 931.6 |
| 20260903200804 | 23 | 184 | 6.4 | 12.9 | 0.00 | 0.00 | 0.00 | 18 | 931.6 |
| 20260903200259 | 23 | 283 | 0.0 | 16.1 | 0.00 | 0.00 | 0.00 | 20 | 931.5 |
| 20260903195754 | 23 | 232 | 16.1 | 20.9 | 0.00 | 0.00 | 0.00 | 19 | 931.3 |
| 20260903195250 | 23 | 186 | 9.7 | 24.1 | 0.00 | 0.00 | 0.00 | 19 | 931.2 |
| 20260903194745 | 23 | 239 | 9.7 | 17.7 | 0.00 | 0.00 | 0.00 | 20 | 931.5 |
| 20260903194241 | 23 | 241 | 16.1 | 20.9 | 0.00 | 0.00 | 0.00 | 19 | 931.7 |
| 20260903193736 | 23 | 206 | 12.9 | 24.1 | 0.00 | 0.00 | 0.00 | 18 | 931.7 |
| 20260903193232 | 23 | 205 | 11.3 | 20.9 | 0.00 | 0.00 | 0.00 | 19 | 931.6 |
| 20260903192728 | 23 | 252 | 16.1 | 20.9 | 0.00 | 0.00 | 0.00 | 19 | 931.6 |
| 20260903192223 | 23 | 192 | 6.4 | 9.7 | 0.00 | 0.00 | 0.00 | 20 | 931.6 |
| 20260903191719 | 23 | 203 | 6.4 | 17.7 | 0.00 | 0.00 | 0.00 | 19 | 931.5 |
| 20260903191215 | 22 | 184 | 6.4 | 20.9 | 0.00 | 0.00 | 0.00 | 19 | 931.8 |
| 20260903190709 | 22 | 227 | 4.8 | 22.5 | 0.00 | 0.00 | 0.00 | 19 | 931.5 |
| 20260903190209 | 22 | 198 | 9.7 | 27.4 | 0.00 | 0.00 | 0.00 | 20 | 931.5 |
| 20260903185704 | 22 | 250 | 11.3 | 20.9 | 0.00 | 0.00 | 0.00 | 19 | 931.8 |
| 20260903185158 | 22 | 206 | 9.7 | 17.7 | 0.00 | 0.00 | 0.00 | 20 | 931.9 |
| 20260903184655 | 22 | 205 | 8.0 | 17.7 | 0.00 | 0.00 | 0.00 | 20 | 931.9 |
| 20260903184151 | 22 | 262 | 14.5 | 22.5 | 0.00 | 0.00 | 0.00 | 20 | 931.9 |
| 20260903183650 | 22 | 210 | 16.1 | 17.7 | 0.00 | 0.00 | 0.00 | 19 | 932.1 |
| 20260903183145 | 22 | 248 | 1.6 | 22.5 | 0.00 | 0.00 | 0.00 | 21 | 931.9 |
| 20260903182643 | 22 | 233 | 17.7 | 27.4 | 0.00 | 0.00 | 0.00 | 19 | 931.8 |
| 20260903182140 | 22 | 228 | 20.9 | 24.1 | 0.00 | 0.00 | 0.00 | 18 | 931.8 |
| 20260903181637 | 22 | 237 | 14.5 | 17.7 | 0.00 | 0.00 | 0.00 | 19 | 931.8 |
| 20260903181132 | 22 | 217 | 1.6 | 12.9 | 0.00 | 0.00 | 0.00 | 20 | 932.1 |
| 20260903180628 | 22 | 158 | 17.7 | 25.7 | 0.00 | 0.00 | 0.00 | 19 | 932.1 |
| 20260903180122 | 22 | 196 | 9.7 | 17.7 | 0.00 | 0.00 | 0.00 | 19 | 932.1 |
| 20260903175621 | 22 | 203 | 9.7 | 22.5 | 0.00 | 0.00 | 0.00 | 19 | 932.4 |
| 20260903175121 | 21 | 254 | 11.3 | 22.5 | 0.00 | 0.00 | 0.00 | 20 | 932.5 |
| 20260903174615 | 21 | 258 | 14.5 | 20.9 | 0.00 | 0.00 | 0.00 | 19 | 932.4 |
| 20260903174110 | 22 | 251 | 6.4 | 12.9 | 0.00 | 0.00 | 0.00 | 21 | 932.3 |
| 20260903173605 | 21 | 164 | 11.3 | 25.7 | 0.00 | 0.00 | 0.00 | 20 | 932.4 |
| 20260903173102 | 21 | 275 | 16.1 | 27.4 | 0.00 | 0.00 | 0.00 | 19 | 932.4 |
| 20260903172556 | 21 | 242 | 12.9 | 20.9 | 0.00 | 0.00 | 0.00 | 19 | 932.3 |
| 20260903172052 | 21 | 224 | 9.7 | 32.2 | 0.00 | 0.00 | 0.00 | 20 | 932.4 |
| 20260903171552 | 21 | 253 | 9.7 | 20.9 | 0.00 | 0.00 | 0.00 | 19 | 932.3 |
| 20260903171048 | 21 | 220 | 8.0 | 14.5 | 0.00 | 0.00 | 0.00 | 19 | 932.4 |
| 20260903170546 | 21 | 243 | 11.3 | 14.5 | 0.00 | 0.00 | 0.00 | 20 | 932.3 |
| 20260903170042 | 21 | 347 | 6.4 | 22.5 | 0.00 | 0.00 | 0.00 | 20 | 932.3 |
| 20260903165539 | 21 | 221 | 0.0 | 16.1 | 0.00 | 0.00 | 0.00 | 21 | 932.3 |
| 20260903165035 | 21 | 201 | 12.9 | 16.1 | 0.00 | 0.00 | 0.00 | 20 | 932.1 |
| 20260903164534 | 21 | 202 | 6.4 | 8.0 | 0.00 | 0.00 | 0.00 | 21 | 932.3 |
| 20260903164030 | 20 | 308 | 4.8 | 14.5 | 0.00 | 0.00 | 0.00 | 22 | 932.1 |
| 20260903163525 | 20 | 218 | 12.9 | 17.7 | 0.00 | 0.00 | 0.00 | 21 | 932.3 |
| 20260903163021 | 20 | 249 | 16.1 | 20.9 | 0.00 | 0.00 | 0.00 | 20 | 932.3 |
| 20260903162517 | 20 | 265 | 9.7 | 20.9 | 0.00 | 0.00 | 0.00 | 21 | 932.7 |
| 20260903162013 | 20 | 240 | 0.0 | 20.9 | 0.00 | 0.00 | 0.00 | 21 | 932.1 |
| 20260903161508 | 20 | 264 | 11.3 | 24.1 | 0.00 | 0.00 | 0.00 | 22 | 932.1 |
| 20260903161005 | 19 | 241 | 11.3 | 14.5 | 0.00 | 0.00 | 0.00 | 21 | 932.3 |
| 20260903160503 | 18 | 141 | 12.9 | 17.7 | 0.00 | 0.00 | 0.00 | 23 | 932.0 |
| 20260903160002 | 17 | 187 | 0.0 | 0.0 | 0.00 | 0.00 | 0.00 | 32 | 932.1 |
| 20260903155456 | 17 | 87 | 0.0 | 0.0 | 0.00 | 0.00 | 0.00 | 34 | 932.1 |
| 20260903154953 | 17 | 38 | 0.0 | 0.0 | 0.00 | 0.00 | 0.00 | 34 | 932.3 |
| 20260903154448 | 16 | 1 | 1.6 | 8.0 | 0.00 | 0.00 | 0.00 | 32 | 932.1 |
| 20260903153944 | 16 | 30 | 0.0 | 0.0 | 0.00 | 0.00 | 0.00 | 32 | 932.5 |
| 20260903153440 | 16 | 4 | 0.0 | 0.0 | 0.00 | 0.00 | 0.00 | 33 | 932.5 |
| 20260903152935 | 15 | 14 | 0.0 | 0.0 | 0.00 | 0.00 | 0.00 | 36 | 932.3 |
| 20260903152431 | 15 | 18 | 0.0 | 0.0 | 0.00 | 0.00 | 0.00 | 35 | 932.6 |
| 20260903151927 | 15 | 19 | 0.0 | 0.0 | 0.00 | 0.00 | 0.00 | 36 | 932.6 |
| 20260903151416 | 15 | 16 | 0.0 | 0.0 | 0.00 | 0.00 | 0.00 | 36 | 932.6 |
| 20260903150916 | 15 | 12 | 0.0 | 0.0 | 0.00 | 0.00 | 0.00 | 34 | 932.6 |
| 20260903150410 | 14 | 29 | 0.0 | 0.0 | 0.00 | 0.00 | 0.00 | 35 | 932.9 |
| 20260903145905 | 14 | 38 | 0.0 | 0.0 | 0.00 | 0.00 | 0.00 | 38 | 932.9 |
| 20260903145400 | 14 | 53 | 0.0 | 0.0 | 0.00 | 0.00 | 0.00 | 41 | 932.6 |
| 20260903144859 | 13 | 64 | 0.0 | 0.0 | 0.00 | 0.00 | 0.00 | 47 | 932.7 |
| 20260903144355 | 12 | 83 | 0.0 | 0.0 | 0.00 | 0.00 | 0.00 | 48 | 932.6 |
| 20260903143850 | 12 | 63 | 0.0 | 3.2 | 0.00 | 0.00 | 0.00 | 50 | 932.4 |
| 20260903143347 | 11 | 64 | 0.0 | 3.2 | 0.00 | 0.00 | 0.00 | 52 | 932.1 |
| 20260903142842 | 10 | 48 | 0.0 | 3.2 | 0.00 | 0.00 | 0.00 | 55 | 932.0 |
| 20260903142338 | 10 | 67 | 0.0 | 1.6 | 0.00 | 0.00 | 0.00 | 51 | 932.0 |
| 20260903141834 | 10 | 83 | 0.0 | 0.0 | 0.00 | 0.00 | 0.00 | 56 | 931.8 |
| 20260903141330 | 9 | 54 | 0.0 | 0.0 | 0.00 | 0.00 | 0.00 | 57 | 931.8 |
| 20260903140830 | 8 | 70 | 0.0 | 0.0 | 0.00 | 0.00 | 0.00 | 55 | 931.7 |
| 20260903140325 | 8 | 81 | 0.0 | 1.6 | 0.00 | 0.00 | 0.00 | 57 | 931.7 |
| 20260903135821 | 7 | 85 | 0.0 | 4.8 | 0.00 | 0.00 | 0.00 | 56 | 931.5 |
| 20260903135316 | 7 | 83 | 0.0 | 0.0 | 0.00 | 0.00 | 0.00 | 58 | 931.7 |
| 20260903134814 | 7 | 77 | 0.0 | 1.6 | 0.00 | 0.00 | 0.00 | 58 | 931.5 |
| 20260903134310 | 7 | 47 | 0.0 | 0.0 | 0.00 | 0.00 | 0.00 | 57 | 931.5 |
| 20260903133808 | 6 | 59 | 0.0 | 0.0 | 0.00 | 0.00 | 0.00 | 59 | 931.6 |
| 20260903133304 | 6 | 82 | 0.0 | 3.2 | 0.00 | 0.00 | 0.00 | 59 | 931.5 |
| 20260903132804 | 6 | 70 | 0.0 | 1.6 | 0.00 | 0.00 | 0.00 | 59 | 931.3 |
| 20260903132259 | 6 | 81 | 0.0 | 0.0 | 0.00 | 0.00 | 0.00 | 59 | 931.2 |
| 20260903131754 | 6 | 61 | 0.0 | 0.0 | 0.00 | 0.00 | 0.00 | 61 | 931.1 |
| 20260903131253 | 6 | 77 | 4.8 | 4.8 | 0.00 | 0.00 | 0.00 | 62 | 931.1 |
| 20260903130748 | 5 | 73 | 0.0 | 0.0 | 0.00 | 0.00 | 0.00 | 64 | 931.1 |
| 20260903130243 | 5 | 73 | 0.0 | 0.0 | 0.00 | 0.00 | 0.00 | 64 | 931.0 |
| 20260903125741 | 5 | 82 | 0.0 | 1.6 | 0.00 | 0.00 | 0.00 | 64 | 930.9 |
| 20260903125237 | 5 | 66 | 3.2 | 3.2 | 0.00 | 0.00 | 0.00 | 65 | 931.0 |
| 20260903124736 | 5 | 72 | 1.6 | 3.2 | 0.00 | 0.00 | 0.00 | 65 | 930.9 |
| 20260903124232 | 5 | 68 | 3.2 | 3.2 | 0.00 | 0.00 | 0.00 | 66 | 930.9 |
| 20260903123730 | 5 | 53 | 0.0 | 0.0 | 0.00 | 0.00 | 0.00 | 67 | 930.8 |
| 20260903123229 | 5 | 77 | 1.6 | 3.2 | 0.00 | 0.00 | 0.00 | 67 | 930.8 |
| 20260903122728 | 5 | 64 | 0.0 | 4.8 | 0.00 | 0.00 | 0.00 | 66 | 931.0 |
| 20260903122224 | 5 | 112 | 4.8 | 4.8 | 0.00 | 0.00 | 0.00 | 66 | 930.9 |
| 20260903121722 | 6 | 158 | 0.0 | 0.0 | 0.00 | 0.00 | 0.00 | 66 | 930.9 |
| 20260903121218 | 6 | 56 | 0.0 | 0.0 | 0.00 | 0.00 | 0.00 | 64 | 931.0 |
| 20260903120718 | 6 | 55 | 0.0 | 0.0 | 0.00 | 0.00 | 0.00 | 62 | 930.9 |
| 20260903120212 | 6 | 73 | 0.0 | 0.0 | 0.00 | 0.00 | 0.00 | 61 | 930.8 |
| 20260903115710 | 7 | 59 | 0.0 | 0.0 | 0.00 | 0.00 | 0.00 | 60 | 930.8 |
| 20260903115206 | 6 | 102 | 0.0 | 0.0 | 0.00 | 0.00 | 0.00 | 60 | 930.8 |
| 20260903114701 | 6 | 105 | 0.0 | 0.0 | 0.00 | 0.00 | 0.00 | 61 | 930.7 |
| 20260903114155 | 7 | 60 | 0.0 | 0.0 | 0.00 | 0.00 | 0.00 | 58 | 930.4 |
| 20260903113651 | 7 | 60 | 0.0 | 0.0 | 0.00 | 0.00 | 0.00 | 59 | 930.5 |
| 20260903113147 | 7 | 60 | 0.0 | 0.0 | 0.00 | 0.00 | 0.00 | 59 | 930.5 |
| 20260903112644 | 7 | 62 | 0.0 | 0.0 | 0.00 | 0.00 | 0.00 | 59 | 930.7 |